Location: Fayetteville
(35.0530°N, 78.8790°W)
Time: 18:16:16
(UTC-05:00)

Hubble Space Telescope - Pass Details

Date: 28 November 2021
Orbit: 534 x 538 km, 28.5° (Epoch: 28 January)

Event Time Altitude Azimuth Distance (km) Brightness Sun altitude
Exits shadow 04:21:13 16° 124° (SE) 1,413 3.5 -32.6°
Drops below altitude 10° 04:22:25 10° 112° (ESE) 1,775 4.2 -32.3°
Sets 04:24:56 0° 100° (E) 2,666 5.4 -31.8°
